Simultaneous Nadir Overpasses (SNOs) Predictions

Prediction of SNOs between NPP and TERRA Satellite Orbit:

Table of predicted SNOs for the next 14.0 days since TLE Epoch: 6/12/2021
Index Date (NPP) Time (NPP) Lat,Lon (NPP) SZA (NPP ) Date (TERRA) Time (TERRA) Lat,Lon (TERRA) SZA (TERRA ) Distance(km) Time Diff (sec)
1 06/14/2021 16:41:01 69.63, -73.37 46.27 06/14/2021 16:42:07 69.52, -71.07 46.11 90.02 66
2 06/14/2021 17:31:25 -68.58, 95.42 134.82 06/14/2021 17:31:52 -68.58, 95.36 134.83 2.29 27
3 06/14/2021 18:22:09 68.46, -97.12 45.06 06/14/2021 18:21:19 68.46, -97.14 45.06 0.70 50
4 06/17/2021 08:57:39 68.68, 43.73 45.20 06/17/2021 08:58:48 68.67, 43.72 45.18 0.97 69
5 06/17/2021 09:48:21 -68.58,-148.83 134.91 06/17/2021 09:48:18 -68.57,-148.77 134.92 2.87 3
6 06/17/2021 10:39:00 68.20, 18.98 44.70 06/17/2021 10:37:48 68.28, 18.53 44.80 20.86 72
7 06/20/2021 01:14:35 68.64, 159.55 45.11 06/20/2021 01:15:15 68.66, 159.58 45.12 2.28 40
8 06/20/2021 02:05:16 -68.49, -32.93 135.05 06/20/2021 02:04:46 -68.50, -32.98 135.03 2.30 30
9 06/22/2021 16:40:58 -69.30, 107.11 134.21 06/22/2021 16:42:07 -69.20, 108.51 134.33 56.14 69
10 06/22/2021 17:31:31 68.60, -84.63 45.08 06/22/2021 17:31:43 68.58, -84.63 45.06 2.27 12
11 06/22/2021 18:22:13 -68.50, 82.82 135.03 06/22/2021 18:21:13 -68.48, 82.88 135.04 3.22 60
12 06/25/2021 08:57:43 -68.67,-136.27 134.79 06/25/2021 08:58:43 -68.68,-136.27 134.79 1.03 60
13 06/25/2021 09:48:27 68.56, 31.18 45.10 06/25/2021 09:48:10 68.55, 31.22 45.09 1.66 17
14 06/25/2021 10:38:59 -67.93,-160.68 135.56 06/25/2021 10:37:48 -68.01,-161.80 135.44 47.58 71



Historial Predications of SNOs between NPP and TERRA
